YAOGAN-10

Last updated on Thu Nov 21 2024 00:02:27 GMT+0000 (Coordinated Universal Time)

1 36834U 10038A 24325.59468639 .00001412 00000+0 17809-3 0 9997 2 36834 97.9408 341.8626 0001467 95.2707 61.3408 14.83538440772111
UTC large
Height (km)
Speed (km/s)
/
Latitude / Longitude
Inclination (degrees)
Orbital Period (minutes)
Azimuth
Elevation
Range (km)
Doppler Factor

Next 0 passes for location: London (51.5072 / 0.1276)

Sorry there are no passes over London.